This is the latest recevied weather packets stored in our database for station/object EA5XQ-13. If no packets are shown the sender has not sent any weather packets the latest 10 day(s).
| Time | Temp. | Humidity | Pressure | Rain* | Wind** | Luminosity | Snow |
|---|---|---|---|---|---|---|---|
| 1787895603 | 25° C | 45% | 1013.7 hPa | 0 mm | - | - | - |
| 1787895303 | 25° C | 44% | 1013.6 hPa | 0 mm | - | - | - |
| 1787895003 | 25° C | 44% | 1013.7 hPa | 0 mm | - | - | - |
| 1787894104 | 24.44° C | 44% | 1013.6 hPa | 0 mm | - | - | - |
| 1787893803 | 24.44° C | 44% | 1013.3 hPa | 0 mm | - | - | - |
| 1787893504 | 24.44° C | 43% | 1013.4 hPa | 0 mm | - | - | - |
| 1787893203 | 24.44° C | 43% | 1013.5 hPa | 0 mm | - | - | - |
| 1787892904 | 25° C | 41% | 1013.1 hPa | 0 mm | - | - | - |
| 1787892604 | 25° C | 41% | 1013.3 hPa | 0 mm | - | - | - |
| 1787892304 | 24.44° C | 42% | 1013.3 hPa | 0 mm | - | - | - |
| 1787892004 | 24.44° C | 42% | 1013.3 hPa | 0 mm | - | - | - |
| 1787891704 | 24.44° C | 44% | 1013.3 hPa | 0 mm | - | - | - |
| 1787891404 | 24.44° C | 44% | 1013.1 hPa | 0 mm | - | - | - |
| 1787891103 | 24.44° C | 42% | 1013.1 hPa | 0 mm | - | - | - |
| 1787890504 | 23.89° C | 46% | 1013 hPa | 0 mm | - | - | - |
| 1787890203 | 23.89° C | 46% | 1012.6 hPa | 0 mm | - | - | - |
| 1787889904 | 23.89° C | 46% | 1012.5 hPa | 0 mm | - | - | - |
| 1787889603 | 24.44° C | 46% | 1012.4 hPa | 0 mm | - | - | - |
| 1787887503 | 24.44° C | 45% | 1012.4 hPa | 0 mm | - | - | - |
| 1787887204 | 24.44° C | 45% | 1012.3 hPa | 0 mm | - | - | - |
| 1787886903 | 24.44° C | 45% | 1012.2 hPa | 0 mm | - | - | - |
| 1787886603 | 24.44° C | 45% | 1012.1 hPa | 0 mm | - | - | - |
| 1787886303 | 24.44° C | 45% | 1012.1 hPa | 0 mm | - | - | - |
| 1787886004 | 25° C | 44% | 1012.5 hPa | 0 mm | - | - | - |
| 1787885703 | 25° C | 44% | 1012.6 hPa | 0 mm | - | - | - |
* Rain latest hour (hover to see other rain measurements)
** Current wind speed in m/s (hover to see current wind gust speed)